• In Portugal
  • List of Countries
  • For 7 days
  • Water Temperature
  • Satellite Maps
  • Weather Map
  • Weather Widgets
  • user-avatar
    Login

    Hourly Weather Oruro

    Today, 23 September, Sunday

    Time Temperature Precipitation Wind Pressure Humidity
    00:00 +8°C° 0 mm 4 mps 476 mmHg 53%
    01:00 +8°C° 0 mm 4 mps 476 mmHg 55%
    02:00 +7°C° 0 mm 4 mps 475 mmHg 57%
    03:00 +8°C° 0 mm 3 mps 475 mmHg 60%
    04:00 +7°C° 0 mm 3 mps 474 mmHg 63%
    05:00 +6°C° 0 mm 2 mps 474 mmHg 65%
    06:00 +7°C° 0 mm 2 mps 475 mmHg 61%
    07:00 +8°C° 0 mm 2 mps 475 mmHg 57%
    08:00 +9°C° 0 mm 3 mps 476 mmHg 52%
    09:00 +10°C° 0 mm 3 mps 477 mmHg 45%
    10:00 +12°C° 0 mm 3 mps 478 mmHg 38%
    11:00 +13°C° 0 mm 3 mps 479 mmHg 30%
    12:00 +14°C° 0 mm 3 mps 479 mmHg 27%
    13:00 +16°C° 0 mm 3 mps 479 mmHg 24%
    14:00 +17°C° 0 mm 3 mps 479 mmHg 21%
    15:00 +17°C° 0 mm 4 mps 478 mmHg 23%
    16:00 +16°C° 0 mm 5 mps 478 mmHg 25%
    17:00 +15°C° 0 mm 5 mps 477 mmHg 27%
    18:00 +13°C° 0.1 mm 5 mps 477 mmHg 34%
    19:00 +12°C° 0.1 mm 5 mps 476 mmHg 42%
    20:00 +9°C° 0.1 mm 5 mps 475 mmHg 50%
    21:00 +8°C° 0.3 mm 5 mps 475 mmHg 51%
    22:00 +8°C° 0.3 mm 4 mps 476 mmHg 52%
    23:00 +8°C° 0.3 mm 4 mps 476 mmHg 53%

    Tomorrow, 24 September, Monday

    Time Temperature Precipitation Wind Pressure Humidity
    00:00 +7°C° 0 mm 4 mps 475 mmHg 54%
    01:00 +7°C° 0 mm 4 mps 475 mmHg 56%
    02:00 +6°C° 0 mm 4 mps 474 mmHg 57%
    03:00 +7°C° 0 mm 3 mps 474 mmHg 59%
    04:00 +7°C° 0 mm 3 mps 474 mmHg 61%
    05:00 +7°C° 0 mm 3 mps 474 mmHg 63%
    06:00 +7°C° 0 mm 3 mps 475 mmHg 61%
    07:00 +8°C° 0 mm 3 mps 476 mmHg 59%
    08:00 +8°C° 0 mm 3 mps 476 mmHg 57%
    09:00 +10°C° 0.2 mm 4 mps 477 mmHg 52%
    10:00 +11°C° 0.2 mm 4 mps 478 mmHg 46%
    11:00 +12°C° 0.2 mm 5 mps 479 mmHg 41%
    12:00 +12°C° 0.2 mm 5 mps 478 mmHg 39%
    13:00 +13°C° 0.2 mm 5 mps 478 mmHg 36%
    14:00 +14°C° 0.2 mm 5 mps 478 mmHg 34%
    15:00 +13°C° 0.1 mm 5 mps 478 mmHg 36%
    16:00 +13°C° 0.1 mm 6 mps 477 mmHg 38%
    17:00 +11°C° 0.1 mm 6 mps 477 mmHg 40%
    18:00 +10°C° 1.3 mm 5 mps 476 mmHg 48%
    19:00 +8°C° 1.3 mm 4 mps 475 mmHg 57%
    20:00 +7°C° 1.3 mm 3 mps 475 mmHg 65%
    21:00 +8°C° 0.5 mm 3 mps 475 mmHg 62%
    22:00 +8°C° 0.5 mm 3 mps 476 mmHg 59%
    23:00 +8°C° 0.5 mm 2 mps 476 mmHg 56%

    Day after tomorrow, 25 September, Tuesday

    Time Temperature Precipitation Wind Pressure Humidity
    00:00 +8°C° 0 mm 2 mps 476 mmHg 59%
    01:00 +7°C° 0 mm 2 mps 475 mmHg 63%
    02:00 +7°C° 0 mm 3 mps 475 mmHg 66%
    03:00 +5°C° 0 mm 3 mps 474 mmHg 69%
    04:00 +5°C° 0 mm 3 mps 474 mmHg 72%
    05:00 +4°C° 0 mm 3 mps 474 mmHg 75%
    06:00 +5°C° 0 mm 3 mps 474 mmHg 67%
    07:00 +5°C° 0 mm 3 mps 475 mmHg 60%
    08:00 +6°C° 0 mm 4 mps 476 mmHg 53%
    09:00 +9°C° 0 mm 3 mps 477 mmHg 43%
    10:00 +10°C° 0 mm 3 mps 478 mmHg 33%
    11:00 +12°C° 0 mm 3 mps 479 mmHg 23%
    12:00 +13°C° 0 mm 3 mps 479 mmHg 20%
    13:00 +14°C° 0 mm 3 mps 479 mmHg 16%
    14:00 +16°C° 0 mm 3 mps 478 mmHg 13%
    15:00 +16°C° 0 mm 3 mps 478 mmHg 13%
    16:00 +16°C° 0 mm 3 mps 478 mmHg 13%
    17:00 +16°C° 0 mm 3 mps 477 mmHg 12%
    18:00 +14°C° 0 mm 3 mps 477 mmHg 19%
    19:00 +12°C° 0 mm 3 mps 477 mmHg 25%
    20:00 +11°C° 0 mm 3 mps 476 mmHg 32%
    21:00 +10°C° 0 mm 3 mps 476 mmHg 38%
    22:00 +9°C° 0 mm 3 mps 476 mmHg 45%
    23:00 +8°C° 0 mm 3 mps 476 mmHg 51%

    26 September, Wednesday

    Time Temperature Precipitation Wind Pressure Humidity
    00:00 +8°C° 0 mm 2 mps 475 mmHg 54%
    01:00 +7°C° 0 mm 2 mps 475 mmHg 58%
    02:00 +7°C° 0 mm 1 mps 474 mmHg 61%
    03:00 +7°C° 0 mm 1 mps 474 mmHg 61%
    04:00 +6°C° 0 mm 1 mps 473 mmHg 62%
    05:00 +6°C° 0 mm 1 mps 473 mmHg 63%
    06:00 +7°C° 0 mm 1 mps 474 mmHg 56%
    07:00 +7°C° 0 mm 2 mps 475 mmHg 48%
    08:00 +7°C° 0 mm 2 mps 476 mmHg 41%
    09:00 +9°C° 0 mm 2 mps 477 mmHg 34%
    10:00 +12°C° 0 mm 2 mps 478 mmHg 27%
    11:00 +13°C° 0 mm 2 mps 478 mmHg 19%
    12:00 +14°C° 0 mm 2 mps 478 mmHg 17%
    13:00 +15°C° 0 mm 2 mps 478 mmHg 15%
    14:00 +16°C° 0 mm 3 mps 478 mmHg 12%
    15:00 +16°C° 0 mm 3 mps 478 mmHg 13%
    16:00 +16°C° 0 mm 3 mps 478 mmHg 13%
    17:00 +16°C° 0 mm 3 mps 477 mmHg 13%
    18:00 +14°C° 0 mm 3 mps 477 mmHg 20%
    19:00 +12°C° 0 mm 3 mps 477 mmHg 26%
    20:00 +11°C° 0 mm 3 mps 477 mmHg 33%
    21:00 +10°C° 0 mm 3 mps 476 mmHg 41%
    22:00 +9°C° 0 mm 3 mps 476 mmHg 49%
    23:00 +8°C° 0 mm 3 mps 476 mmHg 57%

    27 September, Thursday

    Time Temperature Precipitation Wind Pressure Humidity
    00:00 +8°C° 0 mm 3 mps 476 mmHg 59%
    01:00 +8°C° 0 mm 3 mps 475 mmHg 61%
    02:00 +7°C° 0 mm 2 mps 475 mmHg 62%
    03:00 +7°C° 0 mm 2 mps 475 mmHg 63%
    04:00 +6°C° 0 mm 2 mps 474 mmHg 64%
    05:00 +7°C° 0 mm 1 mps 474 mmHg 65%
    06:00 +8°C° 0 mm 1 mps 475 mmHg 61%
    07:00 +7°C° 0 mm 2 mps 476 mmHg 56%
    08:00 +8°C° 0 mm 2 mps 476 mmHg 51%
    09:00 +10°C° 0 mm 2 mps 477 mmHg 42%
    10:00 +12°C° 0 mm 2 mps 478 mmHg 34%
    11:00 +14°C° 0 mm 2 mps 479 mmHg 25%
    12:00 +15°C° 0 mm 2 mps 479 mmHg 21%
    13:00 +16°C° 0 mm 2 mps 479 mmHg 17%
    14:00 +17°C° 0 mm 2 mps 479 mmHg 13%
    15:00 +17°C° 0 mm 3 mps 478 mmHg 14%
    16:00 +17°C° 0 mm 3 mps 478 mmHg 14%
    17:00 +17°C° 0 mm 3 mps 478 mmHg 14%
    18:00 +14°C° 0.1 mm 4 mps 477 mmHg 24%
    19:00 +13°C° 0.1 mm 5 mps 477 mmHg 33%
    20:00 +10°C° 0.1 mm 6 mps 476 mmHg 43%
    21:00 +9°C° 0 mm 6 mps 476 mmHg 47%
    22:00 +8°C° 0 mm 5 mps 476 mmHg 52%
    23:00 +7°C° 0 mm 5 mps 476 mmHg 57%

    28 September, Friday

    Time Temperature Precipitation Wind Pressure Humidity
    00:00 +7°C° 0 mm 4 mps 475 mmHg 58%
    01:00 +7°C° 0 mm 3 mps 475 mmHg 60%
    02:00 +7°C° 0 mm 3 mps 474 mmHg 62%
    03:00 +6°C° 0 mm 2 mps 474 mmHg 63%
    04:00 +6°C° 0 mm 2 mps 474 mmHg 64%
    05:00 +6°C° 0 mm 2 mps 474 mmHg 66%
    06:00 +6°C° 0 mm 2 mps 475 mmHg 62%
    07:00 +7°C° 0 mm 3 mps 476 mmHg 58%
    08:00 +8°C° 0 mm 3 mps 477 mmHg 55%
    09:00 +10°C° 0 mm 3 mps 477 mmHg 46%
    10:00 +12°C° 0 mm 3 mps 478 mmHg 37%
    11:00 +14°C° 0 mm 4 mps 479 mmHg 28%
    12:00 +15°C° 0 mm 4 mps 479 mmHg 25%
    13:00 +17°C° 0 mm 4 mps 479 mmHg 21%
    14:00 +18°C° 0 mm 4 mps 479 mmHg 18%
    15:00 +18°C° 0 mm 4 mps 479 mmHg 19%
    16:00 +18°C° 0 mm 4 mps 478 mmHg 20%
    17:00 +17°C° 0 mm 4 mps 478 mmHg 21%
    18:00 +15°C° 0 mm 4 mps 478 mmHg 29%
    19:00 +14°C° 0 mm 5 mps 477 mmHg 36%
    20:00 +12°C° 0 mm 5 mps 477 mmHg 44%
    21:00 +10°C° 0 mm 5 mps 477 mmHg 48%
    22:00 +11°C° 0 mm 4 mps 477 mmHg 51%
    23:00 +10°C° 0 mm 4 mps 477 mmHg 55%
    Show more